Flag for Azerbaijan Weather past 2 weeks in Sumqayit, Azerbaijan

Now
90 °F

Sunny.


Feels Like: 92 °F
Forecast: 77 / 97 °F
Wind: 10 mph from South

Location: Baku / Bine Airport

Current Time: Jul 31, 2015 at 8:30:35 PM

Latest Report: Jul 31, 2015 at 8:00 PM


Visibility: 10 mi

Pressure: 29.77 "Hg

Humidity: 46%

Dew point: 66 °F

Location of SumqayitLocation

Historic Weather in Sumqayit — Graph

°F

Sumqayit temperature yesterday

Maximum temperature yesterday: 99 °F (at 2:00 PM)
Minimum temperature yesterday: 75 °F (at 5:30 AM)
Average temperature yesterday: 88 °F

Past Weeks' High & Low Weather Summary

 TemperatureHumidityPressure
High102 °F (Jul 31, 3:00 PM)100% (Jul 28, 6:00 AM)30.01 "Hg (Jul 28, 6:00 AM)
Low66 °F (Jul 20, 3:00 AM)16% (Jul 31, 3:00 PM)29.65 "Hg (Jul 27, 4:30 PM)
Average81 °F60%29.85 "Hg
* Reported Jul 16 7:00 PM — Jul 31 7:30 PM, Sumqayit, Weather by CustomWeather, © 2015

Note: Actual official high and low records may vary slightly from our data, if they occured in-between our weather recording intervals... More about our weather records

Advertising

Sumqayit weather history for previous 24 hours

 ConditionsComfort  
Time TempWeatherWind HumidityBarometerVisibility
7:30 PM
Fri, Jul 31
91 °FSunny.13 mph36%29.77 "Hg10 mi
7:00 PM93 °FSunny.12 mph30%29.77 "Hg10 mi
6:30 PM95 °FSunny.12 mph28%29.77 "Hg10 mi
6:00 PM99 °FSunny.10 mph22%29.77 "Hg10 mi
5:30 PM99 °FSunny.8 mph22%29.77 "Hg10 mi
5:00 PM99 °FSunny.9 mph22%29.77 "Hg10 mi
4:30 PM99 °FSunny.10 mph22%29.77 "Hg10 mi
4:00 PM100 °FSunny.10 mph18%29.80 "Hg10 mi
3:30 PM100 °FSunny.8 mph18%29.80 "Hg10 mi
3:00 PM102 °FSunny.9 mph16%29.80 "Hg10 mi
2:30 PM100 °FSunny.12 mph18%29.80 "Hg10 mi
2:00 PM100 °FSunny.12 mph18%29.80 "Hg10 mi
1:30 PM99 °FSunny.7 mph21%29.80 "Hg10 mi
1:00 PM99 °FSunny.6 mph19%29.83 "Hg10 mi
12:30 PM99 °FSunny.6 mph18%29.83 "Hg10 mi
12:00 PM99 °FSunny.8 mph19%29.83 "Hg10 mi
11:30 AM97 °FSunny.6 mph23%29.83 "Hg10 mi
11:00 AM97 °FSunny.5 mph25%29.83 "Hg10 mi
10:30 AM95 °FSunny.3 mph28%29.83 "Hg10 mi
10:00 AM93 °FSunny.3 mph30%29.83 "Hg10 mi
9:30 AM91 °FSunny.5 mph32%29.83 "Hg10 mi
9:00 AM88 °FSunny.5 mph33%29.83 "Hg10 mi
8:30 AM84 °FSunny.3 mph43%29.83 "Hg10 mi
8:00 AM79 °FSunny.No wind51%29.83 "Hg10 mi
7:30 AM73 °FClear.2 mph61%29.83 "Hg10 mi
7:00 AM72 °FClear.No wind65%29.83 "Hg10 mi
6:30 AM70 °FClear.No wind69%29.80 "Hg10 mi
6:00 AM68 °FClear.No wind69%29.80 "Hg10 mi
5:30 AM70 °FClear.No wind64%29.83 "Hg10 mi
5:00 AM72 °FClear.No wind65%29.83 "Hg10 mi
4:30 AM72 °FClear.No wind65%29.83 "Hg10 mi
4:00 AM72 °FClear.2 mph65%29.83 "Hg10 mi
3:30 AM73 °FClear.No wind57%29.83 "Hg10 mi
3:00 AM75 °FClear.No wind54%29.83 "Hg10 mi
2:30 AM75 °FClear.No wind54%29.83 "Hg10 mi
2:00 AM73 °FClear.No wind50%29.83 "Hg10 mi
1:30 AM75 °FClear.2 mph54%29.83 "Hg10 mi
1:00 AM79 °FClear.1 mph42%29.83 "Hg10 mi
12:30 AM77 °FClear.1 mph51%29.83 "Hg10 mi
12:00 AM77 °FClear.3 mph51%29.83 "Hg10 mi
11:30 PM
Thu, Jul 30
77 °FClear.5 mph51%29.86 "Hg10 mi
11:00 PM81 °FClear.No wind42%29.86 "Hg10 mi
10:30 PM82 °FClear.No wind37%29.86 "Hg10 mi
10:00 PM84 °FClear.No wind35%29.83 "Hg10 mi
9:30 PM84 °FSunny.No wind33%29.83 "Hg10 mi
9:00 PM86 °FSunny.No wind29%29.83 "Hg10 mi
8:30 PM90 °FSunny.6 mph26%29.83 "Hg10 mi
8:00 PM91 °FSunny.8 mph24%29.83 "Hg10 mi
Weather by CustomWeather, © 2015

See weather overviewHow to use our weather pages